SES-3 (37748 NORAD) Tracking and Keplerian Element Data

This shows tracking and keplerian element data for the satellite.

Feedback or suggestion? Click here.




ElementValue
Catalog37748
NameSES-3
Epoch Orbit4959
Epoch Day34.66315697
Epoch Year2025
RAAN76.7878
Inclination0.0346
Eccentricity0.0003023
Argument of Perigee244.2687
Mean Anonmoly308.7299
Mean Motion1.00271516
Decay Rate-9.7E-07
L11 37748U 11035A 25034.66315697 -.00000097 00000+0 00000+0 0 9991
L22 37748 0.0346 76.7878 0003023 244.2687 308.7299 1.00271516 49596



Live tracking and technical data element details for SES-3 (NORAD 37748). SES-3 can be tracked NOW for your location showing map with azimuth and elevation plus other details from your city location.







IsCatalogInMostPopularTable: catalog: 37748, numindb: 395
Update: records affected: 1



GetName: 37748 SES-3

Hit Count: updated at: Thu, 15 May 2025 09:50:20 GMT